Regional Weather Roundup
Issued by NWS Jackson, KY

Home | Current Version | Previous Version | Graphics & Text | Print | Product List | Glossary On
Versions: 1 2 3 4 5 6 7 8 9 10 11 12 13 14 15 16 17 18 19 20 21 22 23 24 25 26 27 28 29 30 31 32 33 34 35 36 37 38 39 40 41 42 43 44 45 46 47 48 49 50
000
ASUS43 KJKL 062210
RWRJKL

EAST KENTUCKY HOURLY WEATHER ROUNDUP
NATIONAL WEATHER SERVICE JACKSON KY
500 PM EST SAT FEB 06 2016

NOTE: "FAIR" INDICATES FEW OR NO CLOUDS BELOW 12,000 FEET WITH
NO SIGNIFICANT WEATHER AND/OR OBSTRUCTIONS TO VISIBILITY.

* THESE REPORTS ARE NOT UNDER NWS QUALITY CONTROL AND MAY NOT
  REPORT WEATHER SUCH AS PRECIPITATION AND FOG.

KYZ079-080-083-085-087-088-110-112-115-119-120-062300
...EASTERN KENTUCKY...

CITY           SKY/WX    TMP DP  RH WIND       PRES   REMARKS
JACKSON        CLOUDY    47  20  34 VRB5      30.25S
LONDON         CLOUDY    46  20  35 W6        30.27S
SOMERSET*      SUNNY     45  21  39 SW5       30.29S
MONTICELLO*    MOSUNNY   47  22  37 NE7       30.30S
WILLIAMSBURG*  CLOUDY    46  19  34 CALM      30.28S
MIDDLESBORO*   CLOUDY    45  21  38 S3        30.29S
HARLAN APT*      N/A     43  19  39 CALM      30.27R
HAZARD APT*    MOCLDY   N/A N/A N/A W5        30.26R
BLACK MTN*       N/A     30  19  64 SW7         N/A  WCI  23
BIG SANDY*     MOCLDY    47  21  35 W6        30.24S
MOREHEAD APT*  MOCLDY    46  23  39 VRB7      30.26S
$$

KYZ035-036-041-042-044-050-067-078-099-062300
...CENTRAL KENTUCKY...

CITY           SKY/WX    TMP DP  RH WIND       PRES   REMARKS
MT STERLING*   PTSUNNY   48  27  43 NW8       30.26S
DANVILLE*      MOSUNNY   50  23  34 NW7       30.27S
RICHMOND*      MOCLDY    48  21  34 W6        30.26R
LEXINGTON      SUNNY     49  23  36 W9        30.25S
FRANKFORT      SUNNY     49  22  34 W7        30.25S
$$

KYZ091>093-OHZ055-061-077-WVZ005-015-034-035-042-062300
...SOUTHERN OHIO/WEST VIRGINIA...

CITY           SKY/WX    TMP DP  RH WIND       PRES   REMARKS
COVINGTON      MOSUNNY   46  23  40 W10       30.24
COLUMBUS       PTCLDY    41  14  33 SW9       30.24R
DAYTON         PTCLDY    41  21  44 W13       30.24S
WILMINGTON     CLEAR     42  20  41 W10       30.24R
HUNTINGTON       N/A     48  20  32 W6        30.24S
CHARLESTON     MOCLDY    47  18  31 W5        30.23F
PINEVILLE*       N/A     43  14  30 MISG      30.28S
BECKLEY          N/A     40  15  36 SW6       30.20F
$$

VAZ002-007-008-TNZ017-027-036-066-071-062300
...SOUTHWEST VIRGINIA/EAST TENNESSEE...

CITY           SKY/WX    TMP DP  RH WIND       PRES   REMARKS
BRISTOL        CLOUDY    43  17  35 SW8       30.28S
KNOXVILLE      CLOUDY    46  19  34 N7        30.30R
OAK RIDGE      CLOUDY    47  18  31 CALM      30.32R
CROSSVILLE     CLOUDY    43  17  35 VRB3      30.28R
NASHVILLE      CLOUDY    51  16  24 CALM      30.30S
$$

...KEY TO REMARKS...
VSB - VISIBILITY IN MILES
WCI - WIND CHILL INDEX
HX  - HEAT INDEX

$$



USA.gov is the U.S. government's official web portal to all federal, state and local government web resources and services.